Location: Cypress Hills Dark-Sky Preserve - CHICO
(49.6176°N, 110.2634°W)
Time: 05:18:41
(UTC-06:00)

Amateur Radio Satellites - All Passes

Search period start: 25 July 2014 04:48
Search period end: 26 July 2014 04:48
Location: Cypress Hills Dark-Sky Preserve - CHICO, 49.6176°N, 110.2634°W

Satellite Date Start Highest point End Downlink Frequencies (MHz)
Time Altitude Azimuth
AO-7 25 Jul 04:51:21 04:58:31 31° 93° (E) 05:05:36 29.400 - 29.500 MHz
ISS 25 Jul 04:54:35 04:57:56 59° 358° (N) 05:01:16 145.800 FM
Oscar 16 25 Jul 05:04:09 05:07:01 15° 307° (NW) 05:09:53 437.025 USB, Beacon 2401.1428
TMSAT-1 25 Jul 05:08:52 05:14:08 66° 289° (WNW) 05:19:22 436.925 FM
Lituanica SAT-1 25 Jul 05:11:26 05:13:32 71° 200° (SSW) 05:15:38 437.275 MHz beacon
ITAMSAT 1 25 Jul 05:15:09 05:19:10 23° 301° (WNW) 05:23:11 435.822 SSB
AO-Echo 25 Jul 05:26:41 05:30:05 18° 305° (NW) 05:33:26 ?
OPAL 25 Jul 05:27:36 05:31:28 23° 265° (W) 05:35:21 ?
Gurwin Techsat 1B 25 Jul 05:30:47 05:35:35 35° 296° (WNW) 05:40:21 435.225 FM
AO-27 25 Jul 05:33:42 05:37:02 17° 305° (NW) 05:40:20 436.795 MHz FM
Uribyol 2 25 Jul 05:36:25 05:39:29 16° 306° (NW) 05:42:33 436.500 FM
Uosat F 25 Jul 05:39:54 05:44:55 64° 103° (ESE) 05:49:54 435.120 FM
JAS-1B 25 Jul 05:40:39 05:49:47 46° 302° (WNW) 05:58:02 435.800 - 435.900 CW/SSB
MaSat-1 25 Jul 05:49:19 05:52:40 17° 32° (NNE) 05:56:03 437.345 MHz
Sapphire 25 Jul 05:58:58 06:02:01 15° 343° (NNW) 06:05:06 437.095 MHz 1200 baud AX-25 AFSK
STRAND 1 25 Jul 06:04:01 06:08:25 29° 62° (ENE) 06:12:49 ?
Hamsat 25 Jul 06:04:48 06:05:58 11° 86° (E) 06:07:07 145.90 MHz
KITSAT 1 25 Jul 06:14:56 06:19:41 17° 100° (E) 06:24:27 435.175 FM
ISS 25 Jul 06:31:26 06:34:49 89° 18° (NNE) 06:38:12 145.800 FM
PCSat 25 Jul 06:34:25 06:36:49 13° 352° (N) 06:39:12 145.825 MHz
AO-7 25 Jul 06:43:42 06:52:02 74° 294° (WNW) 07:00:17 29.400 - 29.500 MHz
Lituanica SAT-1 25 Jul 06:45:15 06:45:47 11° 218° (SW) 06:46:19 437.275 MHz beacon
TMSAT-1 25 Jul 06:50:45 06:53:07 13° 309° (NW) 06:55:28 436.925 FM
JAS-2 25 Jul 06:55:53 07:01:24 31° 91° (E) 07:06:22 435.800 - 435.900 CW/SSB, 435.910 FM
Uosat F 25 Jul 07:19:29 07:23:18 22° 302° (WNW) 07:27:05 435.120 FM
MaSat-1 25 Jul 07:25:55 07:31:10 57° 53° (NE) 07:36:19 437.345 MHz
JAS-1B 25 Jul 07:32:16 07:37:49 17° 325° (NW) 07:43:10 435.800 - 435.900 CW/SSB
Hamsat 25 Jul 07:38:16 07:42:34 90° 285° (WNW) 07:46:53 145.90 MHz
STRAND 1 25 Jul 07:42:27 07:47:25 47° 261° (W) 07:52:24 ?
Sapphire 25 Jul 07:45:22 07:47:52 13° 10° (N) 07:50:21 437.095 MHz 1200 baud AX-25 AFSK
SO-67 25 Jul 07:49:02 07:51:39 19° 93° (E) 07:54:14 435.3500 MHz FM
KITSAT 1 25 Jul 08:05:38 08:13:40 70° 121° (ESE) 08:21:43 435.175 FM
ISS 25 Jul 08:08:27 08:11:16 24° 217° (SW) 08:14:03 145.800 FM
PCSat 25 Jul 08:19:23 08:22:37 16° 19° (NNE) 08:25:52 145.825 MHz
Saudisat 1A 25 Jul 08:35:42 08:38:34 17° 112° (ESE) 08:41:27 436.775 MHz
AO-7 25 Jul 08:37:26 08:43:34 24° 317° (NW) 08:49:41 29.400 - 29.500 MHz
JAS-2 25 Jul 08:40:40 08:46:52 51° 294° (WNW) 08:52:21 435.800 - 435.900 CW/SSB, 435.910 FM
MaSat-1 25 Jul 09:03:46 09:08:16 28° 253° (WSW) 09:12:39 437.345 MHz
Hamsat 25 Jul 09:15:59 09:17:55 13° 303° (WNW) 09:19:52 145.90 MHz
SO-67 25 Jul 09:21:39 09:24:50 33° 290° (WNW) 09:27:58 435.3500 MHz FM
Sapphire 25 Jul 09:28:39 09:33:14 27° 35° (NE) 09:37:48 437.095 MHz 1200 baud AX-25 AFSK
UKube-1 25 Jul 09:35:42 09:38:05 14° 89° (E) 09:40:28 145.840 MHz, 145.915 MHz
KITSAT 1 25 Jul 10:02:00 10:09:38 43° 325° (NW) 10:17:17 435.175 FM
PCSat 25 Jul 10:02:24 10:07:33 41° 43° (NE) 10:12:40 145.825 MHz
HO-68 25 Jul 10:02:26 10:09:11 43° 98° (E) 10:15:53 435.675 MHz FM
Saudisat 1A 25 Jul 10:13:13 10:17:38 77° 311° (NW) 10:22:06 436.775 MHz
Oscar 11 25 Jul 10:24:30 10:28:01 24° 93° (E) 10:31:31 145.825 FM, Beacon 2401.500 USB
JAS-2 25 Jul 10:27:54 10:30:20 12° 318° (NW) 10:32:41 435.800 - 435.900 CW/SSB, 435.910 FM
FUNcube-1 25 Jul 10:35:58 10:37:30 12° 87° (E) 10:39:03 145.950 - 145.970 MHz USB
JAS-1B 25 Jul 11:09:51 11:10:16 10° 19° (NNE) 11:10:41 435.800 - 435.900 CW/SSB
UKube-1 25 Jul 11:10:27 11:14:49 72° 288° (WNW) 11:19:09 145.840 MHz, 145.915 MHz
Sapphire 25 Jul 11:11:49 11:17:17 81° 237° (WSW) 11:22:42 437.095 MHz 1200 baud AX-25 AFSK
PCSat 25 Jul 11:45:55 11:51:03 44° 244° (WSW) 11:56:09 145.825 MHz
HO-68 25 Jul 11:50:13 11:57:00 48° 298° (WNW) 12:03:45 435.675 MHz FM
Saudisat 1A 25 Jul 11:54:37 11:57:56 20° 333° (NNW) 12:01:17 436.775 MHz
Oscar 11 25 Jul 12:00:17 12:04:23 42° 291° (WNW) 12:08:27 145.825 FM, Beacon 2401.500 USB
KITSAT 1 25 Jul 12:00:55 12:07:23 25° 353° (N) 12:13:51 435.175 FM
FUNcube-1 25 Jul 12:10:19 12:14:30 79° 286° (WNW) 12:18:40 145.950 - 145.970 MHz USB
Oscar 19 25 Jul 12:39:20 12:43:14 23° 59° (ENE) 12:47:10 437.125 CW, 437.150 USB
UKube-1 25 Jul 12:49:00 12:50:14 11° 307° (NW) 12:51:29 145.840 MHz, 145.915 MHz
JAS-1B 25 Jul 12:50:18 12:57:14 25° 44° (NE) 13:04:29 435.800 - 435.900 CW/SSB
Sapphire 25 Jul 12:56:59 12:59:51 15° 256° (WSW) 13:02:42 437.095 MHz 1200 baud AX-25 AFSK
Oscar 16 25 Jul 13:06:02 13:10:42 37° 65° (ENE) 13:15:23 437.025 USB, Beacon 2401.1428
ITAMSAT 1 25 Jul 13:19:18 13:23:30 25° 60° (ENE) 13:27:42 435.822 SSB
RS-15 25 Jul 13:24:53 13:33:10 25° 102° (ESE) 13:41:20 29.354 - 29.394 USB, Beacon 29.352 USB
AO-Echo 25 Jul 13:26:01 13:30:30 29° 62° (ENE) 13:35:00 ?
AO-27 25 Jul 13:36:50 13:41:31 34° 63° (ENE) 13:46:12 436.795 MHz FM
Saudisat 1A 25 Jul 13:37:32 13:39:11 12° 357° (N) 13:40:50 436.775 MHz
Gurwin Techsat 1B 25 Jul 13:38:42 13:42:09 18° 55° (NE) 13:45:36 435.225 FM
Uribyol 2 25 Jul 13:39:06 13:43:49 37° 64° (ENE) 13:48:33 436.500 FM
HO-68 25 Jul 13:39:47 13:43:05 14° 321° (NW) 13:46:22 435.675 MHz FM
FUNcube-1 25 Jul 13:49:05 13:50:12 11° 305° (NW) 13:51:20 145.950 - 145.970 MHz USB
KITSAT 1 25 Jul 13:58:31 14:05:35 31° 23° (NNE) 14:12:36 435.175 FM
SO-50 25 Jul 14:05:21 14:09:26 36° 119° (ESE) 14:13:37 436.795 FM
AO-7 25 Jul 14:06:08 14:11:39 20° 39° (NE) 14:17:10 29.400 - 29.500 MHz
Oscar 19 25 Jul 14:17:07 14:22:11 64° 258° (WSW) 14:27:17 437.125 CW, 437.150 USB
JAS-1B 25 Jul 14:37:10 14:46:00 69° 67° (ENE) 14:55:48 435.800 - 435.900 CW/SSB
Oscar 16 25 Jul 14:45:22 14:50:04 36° 264° (W) 14:54:48 437.025 USB, Beacon 2401.1428
TMSAT-1 25 Jul 14:54:32 14:59:36 48° 67° (ENE) 15:04:42 436.925 FM
ITAMSAT 1 25 Jul 14:57:31 15:02:40 58° 259° (W) 15:07:50 435.822 SSB
AO-Echo 25 Jul 15:03:51 15:09:00 52° 261° (W) 15:14:14 ?
AO-27 25 Jul 15:16:03 15:20:58 40° 262° (W) 15:25:54 436.795 MHz FM
Gurwin Techsat 1B 25 Jul 15:16:07 15:21:26 89° 255° (WSW) 15:26:48 435.225 FM
Saudisat 1A 25 Jul 15:17:38 15:20:33 17° 22° (NNE) 15:23:27 436.775 MHz
Uribyol 2 25 Jul 15:18:29 15:23:18 37° 263° (W) 15:28:08 436.500 FM
Uosat F 25 Jul 15:20:16 15:24:12 24° 59° (ENE) 15:28:09 435.120 FM
RS-15 25 Jul 15:32:48 15:43:53 83° 126° (SE) 15:54:50 29.354 - 29.394 USB, Beacon 29.352 USB
SO-50 25 Jul 15:45:41 15:49:58 41° 320° (NW) 15:54:21 436.795 FM
KITSAT 1 25 Jul 15:54:16 16:02:24 73° 49° (NE) 16:10:28 435.175 FM
AO-7 25 Jul 15:54:42 16:02:52 61° 62° (ENE) 16:11:03 29.400 - 29.500 MHz
UOSAT-12 25 Jul 16:27:02 16:31:35 62° 125° (SE) 16:36:15 437.025 FM, 437.400 FM
JAS-1B 25 Jul 16:29:00 16:37:05 38° 270° (W) 16:46:03 435.800 - 435.900 CW/SSB
TMSAT-1 25 Jul 16:35:12 16:39:45 29° 267° (W) 16:44:20 436.925 FM
Saudisat 1A 25 Jul 16:56:44 17:01:06 53° 44° (NE) 17:05:25 436.775 MHz
Uosat F 25 Jul 16:57:38 17:02:37 60° 258° (WSW) 17:07:39 435.120 FM
Gurwin Techsat 1B 25 Jul 16:59:19 17:02:11 15° 274° (W) 17:05:05 435.225 FM
Hamsat 25 Jul 17:02:11 17:04:32 15° 59° (ENE) 17:06:54 145.90 MHz
JAS-2 25 Jul 17:11:21 17:17:49 30° 58° (ENE) 17:23:55 435.800 - 435.900 CW/SSB, 435.910 FM
SO-50 25 Jul 17:28:56 17:31:44 16° 343° (NNW) 17:34:34 436.795 FM
OPAL 25 Jul 17:31:20 17:36:21 63° 105° (ESE) 17:41:24 ?
RS-15 25 Jul 17:46:56 17:57:22 46° 334° (NNW) 18:07:50 29.354 - 29.394 USB, Beacon 29.352 USB
AO-7 25 Jul 17:48:22 17:56:02 39° 263° (W) 18:03:46 29.400 - 29.500 MHz
KITSAT 1 25 Jul 17:50:16 17:57:14 33° 251° (WSW) 18:04:10 435.175 FM
UOSAT-12 25 Jul 18:07:58 18:12:06 30° 326° (NW) 18:16:17 437.025 FM, 437.400 FM
SO-67 25 Jul 18:27:16 18:29:16 15° 62° (ENE) 18:31:17 435.3500 MHz FM
Hamsat 25 Jul 18:35:49 18:39:59 74° 258° (WSW) 18:44:12 145.90 MHz
Saudisat 1A 25 Jul 18:36:48 18:40:26 25° 244° (WSW) 18:44:01 436.775 MHz
HO-68 25 Jul 18:52:28 18:56:03 15° 40° (NE) 18:59:38 435.675 MHz FM
JAS-2 25 Jul 18:54:27 19:02:18 77° 256° (WSW) 19:09:41 435.800 - 435.900 CW/SSB, 435.910 FM
OPAL 25 Jul 19:10:57 19:14:52 23° 303° (WNW) 19:18:48 ?
SO-50 25 Jul 19:11:51 19:14:11 14° 8° (N) 19:16:32 436.795 FM
STRAND 1 25 Jul 19:48:29 19:53:21 42° 98° (E) 19:58:10 ?
UOSAT-12 25 Jul 19:51:10 19:53:43 14° 350° (N) 19:56:17 437.025 FM, 437.400 FM
SO-67 25 Jul 19:58:37 20:02:00 49° 261° (W) 20:05:24 435.3500 MHz FM
RS-15 25 Jul 20:02:59 20:12:56 37° 8° (N) 20:23:01 29.354 - 29.394 USB, Beacon 29.352 USB
UKube-1 25 Jul 20:35:03 20:38:31 23° 62° (ENE) 20:41:59 145.840 MHz, 145.915 MHz
HO-68 25 Jul 20:35:21 20:42:12 51° 63° (ENE) 20:49:05 435.675 MHz FM
JAS-2 25 Jul 20:43:15 20:48:20 19° 275° (W) 20:53:15 435.800 - 435.900 CW/SSB, 435.910 FM
SO-50 25 Jul 20:52:16 20:56:17 27° 32° (NNE) 21:00:21 436.795 FM
Oscar 11 25 Jul 21:23:42 21:27:32 32° 66° (ENE) 21:31:23 145.825 FM, Beacon 2401.500 USB
STRAND 1 25 Jul 21:27:56 21:32:26 32° 297° (WNW) 21:36:55 ?
UOSAT-12 25 Jul 21:32:57 21:35:46 15° 15° (NNE) 21:38:36 437.025 FM, 437.400 FM
FUNcube-1 25 Jul 21:36:10 21:39:11 19° 61° (ENE) 21:42:09 145.950 - 145.970 MHz USB
UKube-1 25 Jul 22:10:16 22:14:29 46° 260° (W) 22:18:44 145.840 MHz, 145.915 MHz
RS-15 25 Jul 22:16:53 22:27:48 63° 40° (NE) 22:38:59 29.354 - 29.394 USB, Beacon 29.352 USB
HO-68 25 Jul 22:23:26 22:30:05 40° 263° (W) 22:36:47 435.675 MHz FM
SO-50 25 Jul 22:32:35 22:37:19 74° 233° (SW) 22:42:06 436.795 FM
MaSat-1 25 Jul 22:58:38 23:02:44 65° 116° (ESE) 23:07:31 437.345 MHz
Oscar 11 25 Jul 22:59:55 23:03:44 30° 265° (W) 23:07:34 145.825 FM, Beacon 2401.500 USB
FUNcube-1 25 Jul 23:10:57 23:15:14 57° 259° (W) 23:19:27 145.950 - 145.970 MHz USB
UOSAT-12 25 Jul 23:12:49 23:17:14 37° 38° (NE) 23:21:37 437.025 FM, 437.400 FM
SO-50 26 Jul 00:15:15 00:17:06 12° 251° (WSW) 00:18:57 436.795 FM
Lituanica SAT-1 26 Jul 00:17:38 00:19:04 17° 146° (SE) 00:20:31 437.275 MHz beacon
RS-15 26 Jul 00:29:36 00:40:02 52° 245° (WSW) 00:50:50 29.354 - 29.394 USB, Beacon 29.352 USB
MaSat-1 26 Jul 00:36:57 00:40:37 24° 320° (NW) 00:44:40 437.345 MHz
PCSat 26 Jul 00:52:12 00:54:16 12° 102° (ESE) 00:56:20 145.825 MHz
UOSAT-12 26 Jul 00:52:59 00:57:31 46° 238° (WSW) 01:02:00 437.025 FM, 437.400 FM
ISS 26 Jul 00:55:02 00:56:15 12° 135° (SE) 00:57:28 145.800 FM
Lituanica SAT-1 26 Jul 01:49:17 01:51:20 76° 344° (NNW) 01:53:23 437.275 MHz beacon
Sapphire 26 Jul 01:58:06 02:03:03 38° 114° (ESE) 02:08:02 437.095 MHz 1200 baud AX-25 AFSK
JAS-1B 26 Jul 02:19:58 02:26:26 20° 79° (ENE) 02:32:24 435.800 - 435.900 CW/SSB
Oscar 19 26 Jul 02:24:23 02:29:02 33° 95° (E) 02:33:41 437.125 CW, 437.150 USB
ISS 26 Jul 02:29:05 02:32:22 52° 153° (SSE) 02:35:39 145.800 FM
PCSat 26 Jul 02:31:19 02:36:42 70° 121° (ESE) 02:42:07 145.825 MHz
RS-15 26 Jul 02:46:42 02:49:31 11° 269° (W) 02:52:21 29.354 - 29.394 USB, Beacon 29.352 USB
Oscar 16 26 Jul 02:51:56 02:57:03 58° 101° (E) 03:02:08 437.025 USB, Beacon 2401.1428
ITAMSAT 1 26 Jul 03:06:03 03:10:51 36° 97° (E) 03:15:36 435.822 SSB
AO-Echo 26 Jul 03:06:55 03:11:46 39° 96° (E) 03:16:26 ?
TMSAT-1 26 Jul 03:07:31 03:10:02 13° 85° (E) 03:12:32 436.925 FM
OPAL 26 Jul 03:12:59 03:17:14 30° 60° (ENE) 03:21:31 ?
Lituanica SAT-1 26 Jul 03:21:56 03:23:55 43° 4° (N) 03:25:54 437.275 MHz beacon
AO-27 26 Jul 03:24:14 03:29:20 52° 100° (E) 03:34:23 436.795 MHz FM
Uribyol 2 26 Jul 03:26:13 03:31:20 56° 101° (E) 03:36:23 436.500 FM
Gurwin Techsat 1B 26 Jul 03:28:21 03:32:50 27° 93° (E) 03:37:16 435.225 FM
Sapphire 26 Jul 03:41:14 03:46:26 45° 315° (NW) 03:51:40 437.095 MHz 1200 baud AX-25 AFSK
AO-7 26 Jul 03:54:03 03:57:21 13° 81° (E) 04:00:39 29.400 - 29.500 MHz
Oscar 19 26 Jul 04:03:40 04:08:28 40° 294° (WNW) 04:13:16 437.125 CW, 437.150 USB
ISS 26 Jul 04:05:45 04:09:06 63° 353° (N) 04:12:27 145.800 FM
JAS-1B 26 Jul 04:09:00 04:18:48 73° 102° (ESE) 04:27:21 435.800 - 435.900 CW/SSB
PCSat 26 Jul 04:15:54 04:20:37 29° 323° (NW) 04:25:21 145.825 MHz
Oscar 16 26 Jul 04:31:57 04:36:04 25° 300° (WNW) 04:40:11 437.025 USB, Beacon 2401.1428
